GW5021 Weather Reports


Display with metric or nautical units.
time (UTC)temp
F
wind
direction
speed
MPH
gust
MPH
rain 1hr
in
rain 24hr
in
rain mn
in
humidity
%
barometer
mb
20260503171519 61 175 2.0 8.0 0.00 0.00 0.00 67 1013.5
20260503171007 61 217 2.0 8.0 0.00 0.00 0.00 66 1013.4
20260503170509 61 178 4.0 8.0 0.00 0.00 0.00 65 1013.5
20260503151004 56 192 0.0 4.0 0.00 0.00 0.00 79 1013.2
20260503150505 55 193 1.0 3.0 0.00 0.00 0.00 78 1013.1
20260503131010 54 309 0.0 0.0 0.00 0.00 0.00 81 1011.9
20260503130508 54 309 0.0 0.0 0.00 0.00 0.00 81 1011.9
20260503110507 55 297 0.0 2.0 0.00 0.00 0.00 78 1011.5
20260503090506 55 301 1.0 2.0 0.00 0.00 0.00 77 1011.8
20260503081524 55 312 0.0 3.0 0.00 0.00 0.00 77 1012.2
20260503081008 55 293 0.0 3.0 0.00 0.00 0.00 76 1012.1
20260503080508 55 342 0.0 3.0 0.00 0.00 0.00 76 1012.2
20260503072504 56 300 0.0 2.0 0.00 0.00 0.00 76 1012.2
20260503072004 56 303 0.0 3.0 0.00 0.00 0.00 76 1012.2
20260503071519 56 337 0.0 3.0 0.00 0.00 0.00 76 1012.2
20260503071009 56 306 0.0 1.0 0.00 0.00 0.00 75 1012.2
20260503070508 56 350 0.0 2.0 0.00 0.00 0.00 75 1012.2
20260503055007 56 290 0.0 1.0 0.00 0.00 0.00 74 1012.5
20260503054519 56 285 0.0 1.0 0.00 0.00 0.00 74 1012.5
20260503054009 56 305 0.0 1.0 0.00 0.00 0.00 74 1012.5
20260503053508 56 305 0.0 1.0 0.00 0.00 0.00 74 1012.5
20260503053023 56 305 0.0 1.0 0.00 0.00 0.00 73 1012.5
20260503052509 56 322 0.0 2.0 0.00 0.00 0.00 73 1012.5
20260503052010 57 320 0.0 2.0 0.00 0.00 0.00 73 1012.7
20260503051525 57 278 0.0 1.0 0.00 0.00 0.00 73 1012.7
20260503051009 57 275 0.0 2.0 0.00 0.00 0.00 74 1012.7
20260503050506 57 250 0.0 2.0 0.00 0.00 0.00 74 1012.6
20260503050026 56 281 1.0 2.0 0.00 0.00 0.00 74 1012.6
20260503045504 56 233 0.0 2.0 0.00 0.00 0.00 74 1012.6
20260503045005 56 323 0.0 3.0 0.00 0.00 0.00 74 1012.5
20260503044517 56 295 0.0 3.0 0.00 0.00 0.00 74 1012.5
20260503044006 56 266 0.0 3.0 0.00 0.00 0.00 74 1012.4
20260503043509 56 293 1.0 4.0 0.00 0.00 0.00 74 1012.4
20260503043021 56 307 1.0 4.0 0.00 0.00 0.00 74 1012.3
20260503042509 56 294 1.0 3.0 0.00 0.00 0.00 74 1012.3
20260503042011 56 35 1.0 3.0 0.00 0.00 0.00 74 1012.2
20260503041509 56 304 1.0 3.0 0.00 0.00 0.00 74 1012.1
20260503041005 56 324 1.0 3.0 0.00 0.00 0.00 74 1012.0
20260503040506 56 342 0.0 3.0 0.00 0.00 0.00 74 1011.9
20260503040011 57 347 0.0 2.0 0.00 0.00 0.00 74 1011.9
20260503035503 57 307 1.0 2.0 0.00 0.00 0.00 73 1011.8
20260503035004 57 359 1.0 4.0 0.00 0.00 0.00 73 1011.7
20260503034527 57 317 0.0 4.0 0.00 0.00 0.00 73 1011.6
20260503034005 57 229 0.0 4.0 0.00 0.00 0.00 73 1011.7
20260503033508 57 340 1.0 4.0 0.00 0.00 0.00 72 1011.7
20260503033027 57 329 0.0 5.0 0.00 0.00 0.00 72 1011.5
20260503032512 58 314 1.0 5.0 0.00 0.00 0.00 72 1011.6
20260503032009 58 281 2.0 5.0 0.00 0.00 0.00 71 1011.5
20260503031522 58 353 1.0 5.0 0.00 0.00 0.00 71 1011.5
20260503031016 58 299 0.0 5.0 0.00 0.00 0.00 71 1011.5
20260503030509 59 333 1.0 4.0 0.00 0.00 0.00 71 1011.4
20260503030006 59 324 1.0 4.0 0.00 0.00 0.00 70 1011.3
20260503025504 59 288 1.0 4.0 0.00 0.00 0.00 70 1011.3
20260503025005 59 301 1.0 5.0 0.00 0.00 0.00 70 1011.3
20260503024511 60 326 2.0 5.0 0.00 0.00 0.00 69 1011.2
20260503024004 60 339 1.0 4.0 0.00 0.00 0.00 69 1011.2
20260503023507 60 185 0.0 5.0 0.00 0.00 0.00 69 1011.2
20260503023017 61 304 2.0 5.0 0.00 0.00 0.00 68 1011.1
20260503022509 61 310 2.0 4.0 0.00 0.00 0.00 68 1011.1
20260503022007 61 353 0.0 4.0 0.00 0.00 0.00 68 1011.1
20260503021520 62 311 1.0 4.0 0.00 0.00 0.00 67 1011.0
20260503021009 62 295 2.0 4.0 0.00 0.00 0.00 66 1010.9
20260503020509 62 210 1.0 7.0 0.00 0.00 0.00 66 1011.0
20260503020022 63 297 1.0 7.0 0.00 0.00 0.00 66 1011.0
20260503015509 63 304 2.0 5.0 0.00 0.00 0.00 65 1011.0
20260503015011 63 263 2.0 7.0 0.00 0.00 0.00 64 1011.0
20260503014509 64 299 1.0 7.0 0.00 0.00 0.00 64 1011.0
20260503014003 64 304 1.0 8.0 0.00 0.00 0.00 64 1011.0
20260503013504 65 81 1.0 8.0 0.00 0.00 0.00 63 1011.0
20260503013021 65 316 2.0 7.0 0.00 0.00 0.00 62 1010.9
20260503012504 66 360 2.0 7.0 0.00 0.00 0.00 62 1010.8
20260503012008 67 340 2.0 6.0 0.00 0.00 0.00 60 1010.8
20260503011518 67 316 2.0 6.0 0.00 0.00 0.00 61 1010.8
20260503011008 68 15 2.0 6.0 0.00 0.00 0.00 59 1010.7
20260503010507 68 295 2.0 6.0 0.00 0.00 0.00 58 1010.7
20260503010023 69 277 2.0 5.0 0.00 0.00 0.00 57 1010.6
20260503005507 71 167 2.0 5.0 0.00 0.00 0.00 56 1010.6
20260503005009 71 160 2.0 5.0 0.00 0.00 0.00 55 1010.7
20260503004551 71 266 1.0 4.0 0.00 0.00 0.00 55 1010.8
20260503004011 71 113 1.0 4.0 0.00 0.00 0.00 55 1010.7
20260503003508 71 133 2.0 4.0 0.00 0.00 0.00 54 1010.7
20260503003010 71 179 2.0 4.0 0.00 0.00 0.00 54 1010.7
20260503002503 71 130 1.0 4.0 0.00 0.00 0.00 54 1010.9
20260503002012 71 135 2.0 6.0 0.00 0.00 0.00 54 1010.9
20260503001516 71 179 2.0 6.0 0.00 0.00 0.00 55 1010.9
20260503001008 71 162 2.0 5.0 0.00 0.00 0.00 53 1010.9
20260503000511 71 200 2.0 5.0 0.00 0.00 0.00 54 1010.9
20260503000021 71 221 1.0 6.0 0.00 0.00 0.00 54 1010.9
20260502235508 71 156 1.0 6.0 0.00 0.00 0.00 54 1010.9
20260502235009 71 139 2.0 4.0 0.00 0.00 0.00 54 1010.9
20260502234524 71 117 2.0 4.0 0.00 0.00 0.00 55 1011.0
20260502234007 71 129 2.0 6.0 0.00 0.00 0.00 55 1011.0
20260502233507 70 166 3.0 6.0 0.00 0.00 0.00 55 1011.0
20260502233035 71 169 2.0 5.0 0.00 0.00 0.00 54 1011.0
20260502232507 71 156 2.0 6.0 0.00 0.00 0.00 55 1011.0
20260502232010 70 134 2.0 6.0 0.00 0.00 0.00 56 1011.1
20260502231512 70 202 3.0 5.0 0.00 0.00 0.00 56 1011.2
20260502231006 70 184 3.0 6.0 0.00 0.00 0.00 55 1011.2
20260502230506 70 174 2.0 7.0 0.00 0.00 0.00 55 1011.4
20260502230017 70 134 4.0 7.0 0.00 0.00 0.00 54 1011.5
20260502225510 70 176 2.0 7.0 0.00 0.00 0.00 53 1011.5
20260502225011 70 153 2.0 7.0 0.00 0.00 0.00 54 1011.6
20260502224523 70 110 2.0 6.0 0.00 0.00 0.00 55 1011.7
20260502224009 70 187 3.0 7.0 0.00 0.00 0.00 56 1011.9
20260502223509 70 164 4.0 7.0 0.00 0.00 0.00 55 1011.8
20260502223027 70 150 3.0 6.0 0.00 0.00 0.00 56 1012.0
20260502222507 70 110 1.0 6.0 0.00 0.00 0.00 56 1012.2
20260502222008 70 171 2.0 5.0 0.00 0.00 0.00 56 1012.3
20260502221525 70 136 3.0 7.0 0.00 0.00 0.00 57 1012.4
20260502221008 69 119 3.0 7.0 0.00 0.00 0.00 57 1012.5
20260502220508 69 151 1.0 7.0 0.00 0.00 0.00 57 1012.6
20260502220016 69 137 4.0 6.0 0.00 0.00 0.00 57 1012.7
20260502215507 68 131 2.0 7.0 0.00 0.00 0.00 58 1012.8
20260502215004 68 120 2.0 8.0 0.00 0.00 0.00 59 1012.9
20260502214522 68 226 4.0 8.0 0.00 0.00 0.00 58 1013.0
20260502214009 68 168 3.0 8.0 0.00 0.00 0.00 58 1013.0
20260502213513 68 124 3.0 7.0 0.00 0.00 0.00 58 1012.9
20260502213024 68 141 3.0 7.0 0.00 0.00 0.00 59 1012.9
20260502212510 68 198 4.0 6.0 0.00 0.00 0.00 60 1012.9
20260502212009 68 143 4.0 6.0 0.00 0.00 0.00 59 1013.0
20260502211535 67 166 3.0 7.0 0.00 0.00 0.00 59 1013.0
20260502211010 68 215 3.0 7.0 0.00 0.00 0.00 60 1013.0
20260502210509 67 52 3.0 5.0 0.00 0.00 0.00 62 1013.1
20260502210030 66 153 3.0 7.0 0.00 0.00 0.00 61 1013.3
20260502205510 66 162 3.0 7.0 0.00 0.00 0.00 63 1013.4
20260502205008 66 150 5.0 7.0 0.00 0.00 0.00 62 1013.5
20260502204515 66 138 3.0 6.0 0.00 0.00 0.00 63 1013.6
20260502204004 65 141 3.0 6.0 0.00 0.00 0.00 63 1013.7
20260502203508 65 120 3.0 8.0 0.00 0.00 0.00 63 1013.9
20260502203026 65 129 3.0 8.0 0.00 0.00 0.00 64 1014.0
20260502202509 65 200 3.0 7.0 0.00 0.00 0.00 64 1014.0
20260502202011 64 198 3.0 8.0 0.00 0.00 0.00 64 1014.2
20260502201525 64 193 2.0 8.0 0.00 0.00 0.00 64 1014.2
20260502201006 64 191 4.0 8.0 0.00 0.00 0.00 65 1014.3
20260502200510 64 155 3.0 8.0 0.00 0.00 0.00 64 1014.3
20260502200028 64 128 1.0 7.0 0.00 0.00 0.00 65 1014.3
20260502195509 64 184 4.0 9.0 0.00 0.00 0.00 66 1014.4
20260502195010 64 214 4.0 9.0 0.00 0.00 0.00 65 1014.4
20260502194529 63 153 2.0 7.0 0.00 0.00 0.00 66 1014.4
20260502194007 63 142 2.0 7.0 0.00 0.00 0.00 67 1014.4
20260502193511 62 167 3.0 6.0 0.00 0.00 0.00 68 1014.5
20260502193023 62 219 1.0 6.0 0.00 0.00 0.00 68 1014.6
20260502192508 62 207 4.0 6.0 0.00 0.00 0.00 68 1014.6
20260502192008 61 123 2.0 7.0 0.00 0.00 0.00 69 1014.7
20260502191524 61 153 2.0 7.0 0.00 0.00 0.00 70 1014.7
20260502191003 61 157 3.0 7.0 0.00 0.00 0.00 70 1014.7
20260502190504 61 136 0.0 4.0 0.00 0.00 0.00 71 1014.7
20260502190007 61 109 1.0 7.0 0.00 0.00 0.00 71 1014.7
20260502185505 61 226 1.0 7.0 0.00 0.00 0.00 71 1014.7
20260502185006 60 191 2.0 5.0 0.00 0.00 0.00 71 1014.8
20260502184513 60 187 2.0 6.0 0.00 0.00 0.00 73 1014.8
20260502184007 60 131 3.0 6.0 0.00 0.00 0.00 73 1014.9
20260502183505 59 128 1.0 4.0 0.00 0.00 0.00 75 1014.9
20260502183015 59 109 1.0 5.0 0.00 0.00 0.00 76 1014.9
20260502182509 58 82 1.0 6.0 0.00 0.00 0.00 78 1014.9
20260502182015 58 175 1.0 6.0 0.00 0.00 0.00 78 1015.0
20260502181528 58 237 3.0 6.0 0.00 0.00 0.00 77 1014.9
20260502181008 57 181 1.0 3.0 0.00 0.00 0.00 79 1014.9
20260502180506 57 195 0.0 3.0 0.00 0.00 0.00 80 1014.9